CAT301 EKAH-LGSA

Flight info

Callsign CAT301
Flight time N/A
Altitude 35000
Route TNO DCT BISTA DCT KOSEB DCT MASOR DCT BODLA DCT DISEK DCT DESEN DCT VALPI DCT ALAMU DCT KEROP DCT XENIT DCT IBISI DCT KRATO DCT MAKED DCT ATV UP169 MANOK L612 RUSOS
Aircraft B738/M-SDE2E3FGHIRWXY/LB1

Departure

Time 2026-05-04 09:34
Airport Aarhus Airport (EKAH)

Arrival

Time N/A
Airport Chania International Airport (LGSA)
Time Latitude Longitude Altitude Speed Heading
2026-05-04 09:19 56.30706 10.62762 90 ft 0 kts 55°
2026-05-04 09:29 56.30707 10.62766 90 ft 3 kts 57°
2026-05-04 09:30 56.30675 10.62816 90 ft 13 kts 161°
2026-05-04 09:30 56.30623 10.62953 90 ft 15 kts 108°
2026-05-04 09:30 56.30514 10.62991 90 ft 21 kts 189°
2026-05-04 09:30 56.30406 10.63124 90 ft 24 kts 102°
2026-05-04 09:31 56.30379 10.63402 90 ft 22 kts 100°
2026-05-04 09:31 56.30351 10.63679 90 ft 24 kts 100°
2026-05-04 09:31 56.30322 10.63963 90 ft 22 kts 100°
2026-05-04 09:31 56.30245 10.64135 90 ft 22 kts 211°
2026-05-04 09:32 56.30124 10.63989 90 ft 21 kts 258°
2026-05-04 09:32 56.30145 10.63724 90 ft 25 kts 281°
2026-05-04 09:34 56.31286 10.51568 2679 ft 202 kts 279°
2026-05-04 09:34 56.31511 10.48927 3037 ft 223 kts 279°
2026-05-04 09:34 56.31753 10.46077 3656 ft 234 kts 279°
2026-05-04 09:34 56.32005 10.43146 4448 ft 239 kts 279°
2026-05-04 09:35 56.32264 10.40166 5254 ft 243 kts 279°
2026-05-04 09:35 56.32530 10.37130 5785 ft 247 kts 279°
2026-05-04 09:35 56.32802 10.34072 6660 ft 246 kts 279°
2026-05-04 09:35 56.33075 10.31011 7447 ft 250 kts 279°
2026-05-04 09:37 56.31755 10.09631 11778 ft 309 kts 211°
2026-05-04 09:37 56.29634 10.08452 12053 ft 334 kts 190°
2026-05-04 09:38 56.27252 10.08749 12536 ft 353 kts 171°
2026-05-04 09:38 56.24939 10.10401 13168 ft 363 kts 157°
2026-05-04 09:38 56.22786 10.12911 13798 ft 373 kts 146°
2026-05-04 09:38 56.20868 10.16115 14409 ft 380 kts 139°
2026-05-04 09:39 56.18983 10.19472 15007 ft 383 kts 140°
2026-05-04 09:39 56.17084 10.22868 15588 ft 387 kts 140°
2026-05-04 09:39 56.15170 10.26284 16170 ft 390 kts 140°
2026-05-04 09:39 56.13233 10.29727 16729 ft 394 kts 140°
2026-05-04 09:40 56.11275 10.33203 17278 ft 397 kts 140°
2026-05-04 09:40 56.09325 10.36658 17807 ft 400 kts 140°
2026-05-04 09:40 56.07335 10.40178 18331 ft 404 kts 140°
2026-05-04 09:40 56.05326 10.43727 18858 ft 406 kts 140°
2026-05-04 09:41 56.03305 10.47289 19391 ft 409 kts 140°
2026-05-04 09:42 55.88861 10.72918 22672 ft 427 kts 140°
2026-05-04 09:43 55.86767 10.76612 23079 ft 430 kts 141°
2026-05-04 09:43 55.84639 10.80353 23519 ft 432 kts 141°
2026-05-04 09:43 55.82490 10.84118 23920 ft 434 kts 141°
2026-05-04 09:43 55.80333 10.87888 24307 ft 437 kts 141°
2026-05-04 09:44 55.78223 10.91570 24663 ft 439 kts 141°
2026-05-04 09:44 55.76974 10.93746 24878 ft 440 kts 141°